Left ArrowRight Arrow

Hourly Observations for September 20, 2016

Temp ( °F °C ) Dew Point ( °F °C ) Humidity (%) Winds ( mph kmh ) Pressure ( in mb ) Visibility ( mi km ) Precip ( " mm )
12:53 am 00:53 Clear 75 23.9 55 12.8 50 50 Calm 29.82 1010 10 16 0.00 0.00
1:53 am 01:53 Clear 72 22.2 55 12.8 55 55 Calm 29.83 1010 10 16 0.00 0.00
2:53 am 02:53 Clear 70 21.1 54 12.2 57 57 NNE 3 6 29.83 1010 10 16 0.00 0.00
3:53 am 03:53 Clear 69 20.6 53 11.7 57 57 ESE 3 6 29.84 1011 10 16 0.00 0.00
4:53 am 04:53 Clear 67 19.4 53 11.7 61 61 Calm 29.86 1011 10 16 0.00 0.00
5:53 am 05:53 Clear 66 18.9 53 11.7 63 63 N 7 11 29.87 1012 10 16 0.00 0.00
6:53 am 06:53 Clear 66 18.9 51 10.6 59 59 Calm 29.89 1012 10 16 0.00 0.00
7:53 am 07:53 Sunny 70 21.1 51 10.6 51 51 Calm 29.90 1013 9 14 0.00 0.00
8:53 am 08:53 Sunny 75 23.9 44 6.7 33 33 Calm 29.90 1013 10 16 0.00 0.00
9:53 am 09:53 Sunny 77 25 45 7.2 32 32 VRB 5 7 29.91 1013 10 16 0.00 0.00
10:53 am 10:53 Sunny 79 26.1 45 7.2 30 30 Calm 29.90 1013 10 16 0.00 0.00
11:53 am 11:53 Sunny 83 28.3 42 5.6 24 24 SSW 9 15 29.88 1012 10 16 0.00 0.00
12:53 pm 12:53 Sunny 85 29.4 41 5 21 21 SSW 10 17 29.86 1011 10 16 0.00 0.00
1:53 pm 13:53 Sunny 87 30.6 41 5 20 20 S 12 19 29.84 1011 10 16 0.00 0.00
2:53 pm 14:53 Sunny 90 32.2 33 0.6 13 13 S 13 20 29.81 1010 10 16 0.00 0.00
3:53 pm 15:53 Sunny 90 32.2 30 -1.1 12 12 SSE 12 19 29.79 1009 10 16 0.00 0.00
4:53 pm 16:53 Sunny 91 32.8 33 0.6 13 13 SSE 13 20 29.77 1008 10 16 0.00 0.00
5:53 pm 17:53 Sunny 88 31.1 36 2.2 16 16 S 12 19 29.75 1008 10 16 0.00 0.00
6:53 pm 18:53 Sunny 84 28.9 46 7.8 27 27 SE 7 11 29.76 1008 10 16 0.00 0.00
7:53 pm 19:53 Clear 81 27.2 47 8.3 30 30 ESE 3 6 29.75 1008 10 16 0.00 0.00
8:53 pm 20:53 Clear 77 25 46 7.8 33 33 Calm 29.76 1008 10 16 0.00 0.00
9:53 pm 21:53 Clear 74 23.3 45 7.2 36 36 Calm 29.77 1008 10 16 0.00 0.00
10:53 pm 22:53 Clear 74 23.3 42 5.6 32 32 W 6 9 29.77 1008 10 16 0.00 0.00
11:53 pm 23:53 Clear 76 24.4 38 3.3 25 25 W 6 9 29.78 1009 10 16 0.00 0.00

Powered by Vaisala Xweather